Flag for Germany Weather past 2 weeks in Seelze, Lower Saxony, Germany

Now
41 °F

Scattered clouds.


Feels Like: 41 °F
Forecast: 36 / 58 °F
Wind: 1 mph from North

Location: Hannover

Current Time: Apr 28, 2015 at 8:46:02 PM

Latest Report: Apr 28, 2015 at 8:20 PM


Visibility: N/A

Pressure: 30.07 "Hg

Humidity: 87%

Dew point: 37 °F

Location of SeelzeLocation

Historic Weather in Seelze — Graph

°F

Seelze temperature yesterday

Maximum temperature yesterday: 52 °F (at 12:20 AM)
Minimum temperature yesterday: 41 °F (at 11:50 PM)
Average temperature yesterday: 48 °F

Past Weeks' High & Low Weather Summary

 TemperatureHumidityPressure
High72 °F (Apr 15, 3:20 PM)100% (Apr 17, 6:50 AM)30.42 "Hg (Apr 17, 6:50 AM)
Low30 °F (Apr 28, 5:20 AM)32% (Apr 20, 4:20 PM)29.62 "Hg (Apr 27, 3:20 AM)
Average50 °F72%30.06 "Hg
* Reported Apr 13 7:20 PM — Apr 28 7:50 PM, Seelze, Weather by CustomWeather, © 2015

Note: Actual official high and low records may vary slightly from our data, if they occured in-between our weather recording intervals... More about our weather records

Advertising

Seelze weather history for previous 24 hours

 ConditionsComfort  
Time TempWeatherWind HumidityBarometerVisibility
7:50 PM
Tue, Apr 28
43 °FScattered clouds.3 mph81%30.07 "HgN/A
7:20 PM43 °FScattered clouds.6 mph81%30.04 "HgN/A
6:50 PM43 °FScattered clouds.10 mph87%30.04 "HgN/A
6:20 PM43 °FScattered showers. Broken clouds.13 mph93%30.04 "HgN/A
5:50 PM43 °FSprinkles. Broken clouds.16 mph87%30.04 "HgN/A
5:20 PM43 °FSprinkles. Broken clouds.21 mph87%30.01 "HgN/A
4:50 PM52 °FScattered showers. Partly sunny.10 mph44%29.95 "HgN/A
4:20 PM54 °FPassing clouds.10 mph41%29.95 "HgN/A
3:50 PM54 °FPassing clouds.8 mph41%29.95 "HgN/A
3:20 PM54 °FPassing clouds.10 mph47%29.98 "HgN/A
2:50 PM52 °FPassing clouds.9 mph38%29.95 "HgN/A
2:20 PM52 °FPassing clouds.10 mph41%29.95 "HgN/A
1:50 PM50 °FPassing clouds.10 mph50%29.95 "HgN/A
1:20 PM50 °FScattered clouds.13 mph50%29.95 "HgN/A
12:50 PM48 °FScattered clouds.12 mph58%29.95 "HgN/A
12:20 PM48 °FScattered clouds.10 mph62%29.95 "HgN/A
11:50 AM46 °FScattered clouds.8 mph57%29.95 "HgN/A
11:20 AM46 °FScattered clouds.8 mph57%29.95 "HgN/A
10:50 AM45 °FScattered clouds.9 mph57%29.92 "HgN/A
10:20 AM45 °FPassing clouds.8 mph61%29.92 "HgN/A
9:50 AM43 °FPassing clouds.5 mph66%29.92 "HgN/A
9:20 AM43 °FPassing clouds.6 mph66%29.92 "HgN/A
8:50 AM41 °FPassing clouds.6 mph76%29.92 "HgN/A
8:20 AM37 °FSunny.7 mph87%29.89 "Hg10 mi
7:50 AM34 °FSunny.6 mph93%29.89 "Hg10 mi
7:20 AM34 °FSunny.6 mph93%29.89 "Hg10 mi
6:50 AM32 °FClear.6 mph93%29.89 "Hg10 mi
6:20 AM30 °FClear.6 mph93%29.86 "Hg10 mi
5:20 AM30 °FPassing clouds.5 mph100%29.86 "HgN/A
4:50 AM32 °FPassing clouds.6 mph93%29.86 "HgN/A
4:20 AM34 °FPassing clouds.6 mph87%29.83 "HgN/A
3:50 AM34 °FPassing clouds.6 mph87%29.83 "HgN/A
3:20 AM36 °FPassing clouds.7 mph87%29.83 "HgN/A
2:50 AM34 °FPassing clouds.6 mph93%29.83 "HgN/A
2:20 AM36 °FPassing clouds.6 mph81%29.83 "HgN/A
1:50 AM37 °FPassing clouds.6 mph81%29.83 "HgN/A
1:20 AM39 °FPassing clouds.6 mph75%29.83 "HgN/A
12:50 AM41 °FPassing clouds.6 mph76%29.83 "HgN/A
12:20 AM41 °FQuite cool.8 mph76%29.83 "HgN/A
11:50 PM
Mon, Apr 27
41 °FPassing clouds.9 mph76%29.83 "HgN/A
11:20 PM43 °FPartly cloudy.9 mph71%29.80 "HgN/A
10:50 PM43 °FPartly cloudy.10 mph76%29.80 "HgN/A
10:20 PM45 °FPassing clouds.9 mph76%29.80 "HgN/A
9:50 PM46 °FPartly cloudy.10 mph71%29.80 "HgN/A
9:20 PM46 °FPartly sunny.5 mph66%29.80 "HgN/A
8:50 PM46 °FBroken clouds.6 mph62%29.77 "HgN/A
8:20 PM48 °FBroken clouds.6 mph58%29.77 "HgN/A
Weather by CustomWeather, © 2015

See weather overviewHow to use our weather pages